This is the latest recevied weather packets stored in our database for station/object W4MJZ-1. If no packets are shown the sender has not sent any weather packets the latest 1 day(s).
| Time | Temp. | Humidity | Pressure | Rain* | Wind** | Luminosity | Snow |
|---|---|---|---|---|---|---|---|
| 1777998739 | 19.44° C | 61% | 1020.3 hPa | 0 mm | 1.34 m/s, 243° | - | - |
| 1777998572 | 19.44° C | 62% | 1020.3 hPa | 0 mm | 0.89 m/s, 229° | - | - |
| 1777998439 | 19.44° C | 62% | 1020.3 hPa | 0 mm | 0.89 m/s, 229° | - | - |
| 1777998333 | 18.89° C | 62% | 1020.3 hPa | 0 mm | 0.89 m/s, 231° | - | - |
| 1777998140 | 18.89° C | 62% | 1020.3 hPa | 0 mm | 0.89 m/s, 231° | - | - |
| 1777998110 | 18.89° C | 62% | 1020 hPa | 0 mm | 0.89 m/s, 210° | - | - |
| 1777997839 | 18.89° C | 62% | 1020 hPa | 0 mm | 0.89 m/s, 210° | - | - |
| 1777997797 | 18.89° C | 66% | 1020 hPa | 0 mm | 0.89 m/s, 216° | - | - |
| 1777997540 | 18.89° C | 66% | 1020 hPa | 0 mm | 0.89 m/s, 216° | - | - |
| 1777997425 | 18.89° C | 63% | 1020.3 hPa | 0 mm | 0.89 m/s, 210° | - | - |
| 1777997239 | 18.89° C | 63% | 1020.3 hPa | 0 mm | 0.89 m/s, 210° | - | - |
| 1777997131 | 18.89° C | 66% | 1020 hPa | 0 mm | 0.45 m/s, 223° | - | - |
| 1777996939 | 18.89° C | 66% | 1020 hPa | 0 mm | 0.45 m/s, 223° | - | - |
| 1777996811 | 17.78° C | 70% | 1020 hPa | 0 mm | 0.89 m/s, 238° | - | - |
| 1777996638 | 17.78° C | 70% | 1020 hPa | 0 mm | 0.89 m/s, 238° | - | - |
| 1777996539 | 17.22° C | 70% | 1020 hPa | 0 mm | 0.89 m/s, 206° | - | - |
| 1777996339 | 17.22° C | 70% | 1020 hPa | 0 mm | 0.89 m/s, 206° | - | - |
| 1777996219 | 17.78° C | 70% | 1020.3 hPa | 0 mm | 0.45 m/s, 188° | - | - |
| 1777996039 | 17.78° C | 70% | 1020.3 hPa | 0 mm | 0.45 m/s, 188° | - | - |
| 1777995844 | 17.78° C | 71% | 1020.3 hPa | 0 mm | 0.45 m/s, 172° | - | - |
| 1777995739 | 17.78° C | 71% | 1020.3 hPa | 0 mm | 0.45 m/s, 172° | - | - |
| 1777995650 | 17.22° C | 72% | 1020 hPa | 0 mm | 0.45 m/s, 211° | - | - |
| 1777995438 | 17.22° C | 72% | 1020 hPa | 0 mm | 0.45 m/s, 211° | - | - |
| 1777995348 | 16.67° C | 76% | 1020.3 hPa | 0 mm | 0.45 m/s, 295° | - | - |
| 1777995139 | 16.67° C | 76% | 1020.3 hPa | 0 mm | 0.45 m/s, 295° | - | - |
* Rain latest hour (hover to see other rain measurements)
** Current wind speed in m/s (hover to see current wind gust speed)